owner,sensor,date,latitude,longitude,air_temperature,qcFlag 
COMPS,ioos:station:USF.COMPS:ANC:1,2008-12-01T00:00:00Z,28.1930,-82.7890,17.68,1111122 
COMPS,ioos:station:USF.COMPS:ANC:1,2008-12-01T00:06:00Z,28.1930,-82.7890,17.68,1111122 
COMPS,ioos:station:USF.COMPS:ANC:1,2008-12-01T00:12:00Z,28.1930,-82.7890,17.71,1111122 
COMPS,ioos:station:USF.COMPS:ANC:1,2008-12-01T00:18:00Z,28.1930,-82.7890,17.74,1111122 
COMPS,ioos:station:USF.COMPS:ANC:1,2008-12-01T00:24:00Z,28.1930,-82.7890,17.91,1111122 
COMPS,ioos:station:USF.COMPS:ANC:1,2008-12-01T00:30:00Z,28.1930,-82.7890,17.77,1111122 
COMPS,ioos:station:USF.COMPS:ANC:1,2008-12-01T00:36:00Z,28.1930,-82.7890,17.78,1111122 
COMPS,ioos:station:USF.COMPS:ANC:1,2008-12-01T00:42:00Z,28.1930,-82.7890,17.8,1111122 
COMPS,ioos:station:USF.COMPS:ANC:1,2008-12-01T00:48:00Z,28.1930,-82.7890,17.81,1111122 
COMPS,ioos:station:USF.COMPS:ANC:1,2008-12-01T00:54:00Z,28.1930,-82.7890,17.8,1111122 
COMPS,ioos:station:USF.COMPS:ANC:1,2008-12-01T01:00:00Z,28.1930,-82.7890,17.75,1111122 
COMPS,ioos:station:USF.COMPS:ANC:1,2008-12-01T01:06:00Z,28.1930,-82.7890,17.75,1111122 
COMPS,ioos:station:USF.COMPS:ANC:1,2008-12-01T01:12:00Z,28.1930,-82.7890,17.77,1111122 
COMPS,ioos:station:USF.COMPS:ANC:1,2008-12-01T01:18:00Z,28.1930,-82.7890,17.75,1111122 
COMPS,ioos:station:USF.COMPS:ANC:1,2008-12-01T01:24:00Z,28.1930,-82.7890,17.98,1111122 
COMPS,ioos:station:USF.COMPS:ANC:1,2008-12-01T01:30:00Z,28.1930,-82.7890,17.89,1111122 
COMPS,ioos:station:USF.COMPS:ANC:1,2008-12-01T01:36:00Z,28.1930,-82.7890,18.0,1111122 
COMPS,ioos:station:USF.COMPS:ANC:1,2008-12-01T01:42:00Z,28.1930,-82.7890,17.99,1111122 
COMPS,ioos:station:USF.COMPS:ANC:1,2008-12-01T01:48:00Z,28.1930,-82.7890,17.91,1111122 
COMPS,ioos:station:USF.COMPS:ANC:1,2008-12-01T01:54:00Z,28.1930,-82.7890,18.07,1111122 
COMPS,ioos:station:USF.COMPS:ANC:1,2008-12-01T02:00:00Z,28.1930,-82.7890,18.08,1111122 
COMPS,ioos:station:USF.COMPS:ANC:1,2008-12-01T02:06:00Z,28.1930,-82.7890,18.06,1111122 
COMPS,ioos:station:USF.COMPS:ANC:1,2008-12-01T02:12:00Z,28.1930,-82.7890,18.1,1111122 
COMPS,ioos:station:USF.COMPS:ANC:1,2008-12-01T02:18:00Z,28.1930,-82.7890,18.17,1111122 
COMPS,ioos:station:USF.COMPS:ANC:1,2008-12-01T02:24:00Z,28.1930,-82.7890,18.42,1111122 
COMPS,ioos:station:USF.COMPS:ANC:1,2008-12-01T02:30:00Z,28.1930,-82.7890,18.16,1111122 
COMPS,ioos:station:USF.COMPS:ANC:1,2008-12-01T02:36:00Z,28.1930,-82.7890,18.19,1111122 
COMPS,ioos:station:USF.COMPS:ANC:1,2008-12-01T02:42:00Z,28.1930,-82.7890,18.22,1111122 
COMPS,ioos:station:USF.COMPS:ANC:1,2008-12-01T02:48:00Z,28.1930,-82.7890,18.23,1111122 
COMPS,ioos:station:USF.COMPS:ANC:1,2008-12-01T02:54:00Z,28.1930,-82.7890,18.29,1111122 
COMPS,ioos:station:USF.COMPS:ANC:1,2008-12-01T03:00:00Z,28.1930,-82.7890,18.44,1111122 
COMPS,ioos:station:USF.COMPS:ANC:1,2008-12-01T03:06:00Z,28.1930,-82.7890,18.51,1111122 
COMPS,ioos:station:USF.COMPS:ANC:1,2008-12-01T03:12:00Z,28.1930,-82.7890,18.47,1111122 
COMPS,ioos:station:USF.COMPS:ANC:1,2008-12-01T03:18:00Z,28.1930,-82.7890,18.43,1111122 
COMPS,ioos:station:USF.COMPS:ANC:1,2008-12-01T03:24:00Z,28.1930,-82.7890,18.56,1111122 
COMPS,ioos:station:USF.COMPS:ANC:1,2008-12-01T03:30:00Z,28.1930,-82.7890,18.4,1111122 
COMPS,ioos:station:USF.COMPS:ANC:1,2008-12-01T03:36:00Z,28.1930,-82.7890,18.31,1111122 
COMPS,ioos:station:USF.COMPS:ANC:1,2008-12-01T03:42:00Z,28.1930,-82.7890,18.15,1111122 
COMPS,ioos:station:USF.COMPS:ANC:1,2008-12-01T03:48:00Z,28.1930,-82.7890,18.19,1111122 
COMPS,ioos:station:USF.COMPS:ANC:1,2008-12-01T03:54:00Z,28.1930,-82.7890,18.16,1111122 
COMPS,ioos:station:USF.COMPS:ANC:1,2008-12-01T04:00:00Z,28.1930,-82.7890,18.12,1111122 
COMPS,ioos:station:USF.COMPS:ANC:1,2008-12-01T04:06:00Z,28.1930,-82.7890,18.03,1111122 
COMPS,ioos:station:USF.COMPS:ANC:1,2008-12-01T04:12:00Z,28.1930,-82.7890,18.05,1111122 
COMPS,ioos:station:USF.COMPS:ANC:1,2008-12-01T04:18:00Z,28.1930,-82.7890,18.13,1111122 
COMPS,ioos:station:USF.COMPS:ANC:1,2008-12-01T04:24:00Z,28.1930,-82.7890,18.27,1111122 
COMPS,ioos:station:USF.COMPS:ANC:1,2008-12-01T04:30:00Z,28.1930,-82.7890,18.03,1111122 
COMPS,ioos:station:USF.COMPS:ANC:1,2008-12-01T04:36:00Z,28.1930,-82.7890,17.99,1111122 
COMPS,ioos:station:USF.COMPS:ANC:1,2008-12-01T04:42:00Z,28.1930,-82.7890,18.08,1111122 
COMPS,ioos:station:USF.COMPS:ANC:1,2008-12-01T04:48:00Z,28.1930,-82.7890,18.11,1111122 
COMPS,ioos:station:USF.COMPS:ANC:1,2008-12-01T04:54:00Z,28.1930,-82.7890,18.39,1111122 
COMPS,ioos:station:USF.COMPS:ANC:1,2008-12-01T05:00:00Z,28.1930,-82.7890,18.66,1111122 
COMPS,ioos:station:USF.COMPS:ANC:1,2008-12-01T05:06:00Z,28.1930,-82.7890,18.71,1111122 
COMPS,ioos:station:USF.COMPS:ANC:1,2008-12-01T05:12:00Z,28.1930,-82.7890,18.87,1111122 
COMPS,ioos:station:USF.COMPS:ANC:1,2008-12-01T05:18:00Z,28.1930,-82.7890,18.95,1111122 
COMPS,ioos:station:USF.COMPS:ANC:1,2008-12-01T05:24:00Z,28.1930,-82.7890,19.1,1111122 
COMPS,ioos:station:USF.COMPS:ANC:1,2008-12-01T05:30:00Z,28.1930,-82.7890,19.01,1111122 
COMPS,ioos:station:USF.COMPS:ANC:1,2008-12-01T05:36:00Z,28.1930,-82.7890,18.98,1111122 
COMPS,ioos:station:USF.COMPS:ANC:1,2008-12-01T05:42:00Z,28.1930,-82.7890,18.95,1111122 
COMPS,ioos:station:USF.COMPS:ANC:1,2008-12-01T05:48:00Z,28.1930,-82.7890,19.05,1111122 
COMPS,ioos:station:USF.COMPS:ANC:1,2008-12-01T05:54:00Z,28.1930,-82.7890,18.99,1111122 
COMPS,ioos:station:USF.COMPS:ANC:1,2008-12-01T06:00:00Z,28.1930,-82.7890,19.01,1111122 
COMPS,ioos:station:USF.COMPS:ANC:1,2008-12-01T06:06:00Z,28.1930,-82.7890,19.1,1111122 
COMPS,ioos:station:USF.COMPS:ANC:1,2008-12-01T06:12:00Z,28.1930,-82.7890,19.09,1111122 
COMPS,ioos:station:USF.COMPS:ANC:1,2008-12-01T06:18:00Z,28.1930,-82.7890,19.07,1111122 
COMPS,ioos:station:USF.COMPS:ANC:1,2008-12-01T06:24:00Z,28.1930,-82.7890,19.13,1111122 
COMPS,ioos:station:USF.COMPS:ANC:1,2008-12-01T06:30:00Z,28.1930,-82.7890,19.01,1111122 
COMPS,ioos:station:USF.COMPS:ANC:1,2008-12-01T06:36:00Z,28.1930,-82.7890,19.02,1111122 
COMPS,ioos:station:USF.COMPS:ANC:1,2008-12-01T06:42:00Z,28.1930,-82.7890,18.97,1111122 
COMPS,ioos:station:USF.COMPS:ANC:1,2008-12-01T06:48:00Z,28.1930,-82.7890,18.9,1111122 
COMPS,ioos:station:USF.COMPS:ANC:1,2008-12-01T06:54:00Z,28.1930,-82.7890,18.92,1111122 
COMPS,ioos:station:USF.COMPS:ANC:1,2008-12-01T07:00:00Z,28.1930,-82.7890,18.99,1111122 
COMPS,ioos:station:USF.COMPS:ANC:1,2008-12-01T07:06:00Z,28.1930,-82.7890,18.98,1111122 
COMPS,ioos:station:USF.COMPS:ANC:1,2008-12-01T07:12:00Z,28.1930,-82.7890,18.88,1111122 
COMPS,ioos:station:USF.COMPS:ANC:1,2008-12-01T07:18:00Z,28.1930,-82.7890,18.83,1111122 
COMPS,ioos:station:USF.COMPS:ANC:1,2008-12-01T07:24:00Z,28.1930,-82.7890,19.05,1111122 
COMPS,ioos:station:USF.COMPS:ANC:1,2008-12-01T07:30:00Z,28.1930,-82.7890,18.95,1111122 
COMPS,ioos:station:USF.COMPS:ANC:1,2008-12-01T07:36:00Z,28.1930,-82.7890,18.89,1111122 
COMPS,ioos:station:USF.COMPS:ANC:1,2008-12-01T07:42:00Z,28.1930,-82.7890,18.95,1111122 
COMPS,ioos:station:USF.COMPS:ANC:1,2008-12-01T07:48:00Z,28.1930,-82.7890,19.0,1111122 
COMPS,ioos:station:USF.COMPS:ANC:1,2008-12-01T07:54:00Z,28.1930,-82.7890,19.01,1111122 
COMPS,ioos:station:USF.COMPS:ANC:1,2008-12-01T08:00:00Z,28.1930,-82.7890,18.96,1111122 
COMPS,ioos:station:USF.COMPS:ANC:1,2008-12-01T08:06:00Z,28.1930,-82.7890,18.97,1111122 
COMPS,ioos:station:USF.COMPS:ANC:1,2008-12-01T08:12:00Z,28.1930,-82.7890,19.0,1111122 
COMPS,ioos:station:USF.COMPS:ANC:1,2008-12-01T08:18:00Z,28.1930,-82.7890,18.98,1111122 
COMPS,ioos:station:USF.COMPS:ANC:1,2008-12-01T08:24:00Z,28.1930,-82.7890,19.23,1111122 
COMPS,ioos:station:USF.COMPS:ANC:1,2008-12-01T08:30:00Z,28.1930,-82.7890,19.15,1111122 
COMPS,ioos:station:USF.COMPS:ANC:1,2008-12-01T08:36:00Z,28.1930,-82.7890,19.2,1111122 
COMPS,ioos:station:USF.COMPS:ANC:1,2008-12-01T08:42:00Z,28.1930,-82.7890,19.21,1111122 
COMPS,ioos:station:USF.COMPS:ANC:1,2008-12-01T08:48:00Z,28.1930,-82.7890,19.1,1111122 
COMPS,ioos:station:USF.COMPS:ANC:1,2008-12-01T08:54:00Z,28.1930,-82.7890,19.09,1111122 
COMPS,ioos:station:USF.COMPS:ANC:1,2008-12-01T09:00:00Z,28.1930,-82.7890,19.08,1111122 
COMPS,ioos:station:USF.COMPS:ANC:1,2008-12-01T09:06:00Z,28.1930,-82.7890,19.08,1111122 
COMPS,ioos:station:USF.COMPS:ANC:1,2008-12-01T09:12:00Z,28.1930,-82.7890,19.11,1111122 
COMPS,ioos:station:USF.COMPS:ANC:1,2008-12-01T09:18:00Z,28.1930,-82.7890,19.11,1111122 
COMPS,ioos:station:USF.COMPS:ANC:1,2008-12-01T09:24:00Z,28.1930,-82.7890,19.28,1111122 
COMPS,ioos:station:USF.COMPS:ANC:1,2008-12-01T09:30:00Z,28.1930,-82.7890,19.11,1111122 
COMPS,ioos:station:USF.COMPS:ANC:1,2008-12-01T09:36:00Z,28.1930,-82.7890,18.97,1111122 
COMPS,ioos:station:USF.COMPS:ANC:1,2008-12-01T09:42:00Z,28.1930,-82.7890,18.87,1111122 
COMPS,ioos:station:USF.COMPS:ANC:1,2008-12-01T09:48:00Z,28.1930,-82.7890,18.84,1111122 
COMPS,ioos:station:USF.COMPS:ANC:1,2008-12-01T09:54:00Z,28.1930,-82.7890,18.78,1111122 
COMPS,ioos:station:USF.COMPS:ANC:1,2008-12-01T10:00:00Z,28.1930,-82.7890,18.88,1111122 
COMPS,ioos:station:USF.COMPS:ANC:1,2008-12-01T10:06:00Z,28.1930,-82.7890,18.87,1111122 
COMPS,ioos:station:USF.COMPS:ANC:1,2008-12-01T10:12:00Z,28.1930,-82.7890,18.84,1111122 
COMPS,ioos:station:USF.COMPS:ANC:1,2008-12-01T10:18:00Z,28.1930,-82.7890,18.85,1111122 
COMPS,ioos:station:USF.COMPS:ANC:1,2008-12-01T10:24:00Z,28.1930,-82.7890,19.0,1111122 
COMPS,ioos:station:USF.COMPS:ANC:1,2008-12-01T10:30:00Z,28.1930,-82.7890,18.76,1111122 
COMPS,ioos:station:USF.COMPS:ANC:1,2008-12-01T10:36:00Z,28.1930,-82.7890,18.83,1111122 
COMPS,ioos:station:USF.COMPS:ANC:1,2008-12-01T10:42:00Z,28.1930,-82.7890,17.81,1111122 
COMPS,ioos:station:USF.COMPS:ANC:1,2008-12-01T10:48:00Z,28.1930,-82.7890,17.41,1111122 
COMPS,ioos:station:USF.COMPS:ANC:1,2008-12-01T10:54:00Z,28.1930,-82.7890,17.33,1111122 
COMPS,ioos:station:USF.COMPS:ANC:1,2008-12-01T11:00:00Z,28.1930,-82.7890,17.3,1111122 
COMPS,ioos:station:USF.COMPS:ANC:1,2008-12-01T11:06:00Z,28.1930,-82.7890,17.16,1111122 
COMPS,ioos:station:USF.COMPS:ANC:1,2008-12-01T11:12:00Z,28.1930,-82.7890,17.15,1111122 
COMPS,ioos:station:USF.COMPS:ANC:1,2008-12-01T11:18:00Z,28.1930,-82.7890,17.04,1111122 
COMPS,ioos:station:USF.COMPS:ANC:1,2008-12-01T11:24:00Z,28.1930,-82.7890,17.12,1111122 
COMPS,ioos:station:USF.COMPS:ANC:1,2008-12-01T11:30:00Z,28.1930,-82.7890,16.86,1111122 
COMPS,ioos:station:USF.COMPS:ANC:1,2008-12-01T11:36:00Z,28.1930,-82.7890,16.88,1111122 
COMPS,ioos:station:USF.COMPS:ANC:1,2008-12-01T11:42:00Z,28.1930,-82.7890,16.85,1111122 
COMPS,ioos:station:USF.COMPS:ANC:1,2008-12-01T11:48:00Z,28.1930,-82.7890,16.81,1111122 
COMPS,ioos:station:USF.COMPS:ANC:1,2008-12-01T11:54:00Z,28.1930,-82.7890,16.77,1111122 
COMPS,ioos:station:USF.COMPS:ANC:1,2008-12-01T14:00:00Z,28.1930,-82.7890,15.1,1111122 
COMPS,ioos:station:USF.COMPS:ANC:1,2008-12-01T14:06:00Z,28.1930,-82.7890,15.11,1111122 
COMPS,ioos:station:USF.COMPS:ANC:1,2008-12-01T14:12:00Z,28.1930,-82.7890,15.15,1111122 
COMPS,ioos:station:USF.COMPS:ANC:1,2008-12-01T14:18:00Z,28.1930,-82.7890,15.02,1111122 
COMPS,ioos:station:USF.COMPS:ANC:1,2008-12-01T14:24:00Z,28.1930,-82.7890,15.28,1111122 
COMPS,ioos:station:USF.COMPS:ANC:1,2008-12-01T14:30:00Z,28.1930,-82.7890,15.23,1111122 
COMPS,ioos:station:USF.COMPS:ANC:1,2008-12-01T14:36:00Z,28.1930,-82.7890,15.26,1111122 
COMPS,ioos:station:USF.COMPS:ANC:1,2008-12-01T14:42:00Z,28.1930,-82.7890,15.31,1111122 
COMPS,ioos:station:USF.COMPS:ANC:1,2008-12-01T14:48:00Z,28.1930,-82.7890,15.45,1111122 
COMPS,ioos:station:USF.COMPS:ANC:1,2008-12-01T14:54:00Z,28.1930,-82.7890,15.42,1111122 
COMPS,ioos:station:USF.COMPS:ANC:1,2008-12-01T15:00:00Z,28.1930,-82.7890,15.7,1111122 
COMPS,ioos:station:USF.COMPS:ANC:1,2008-12-01T15:06:00Z,28.1930,-82.7890,15.99,1111122 
COMPS,ioos:station:USF.COMPS:ANC:1,2008-12-01T15:12:00Z,28.1930,-82.7890,16.13,1111122 
COMPS,ioos:station:USF.COMPS:ANC:1,2008-12-01T15:18:00Z,28.1930,-82.7890,16.53,1111122 
COMPS,ioos:station:USF.COMPS:ANC:1,2008-12-01T15:24:00Z,28.1930,-82.7890,16.85,1111122 
COMPS,ioos:station:USF.COMPS:ANC:1,2008-12-01T15:30:00Z,28.1930,-82.7890,16.64,1111122 
COMPS,ioos:station:USF.COMPS:ANC:1,2008-12-01T15:36:00Z,28.1930,-82.7890,16.79,1111122 
COMPS,ioos:station:USF.COMPS:ANC:1,2008-12-01T15:42:00Z,28.1930,-82.7890,16.85,1111122 
COMPS,ioos:station:USF.COMPS:ANC:1,2008-12-01T15:48:00Z,28.1930,-82.7890,16.64,1111122 
COMPS,ioos:station:USF.COMPS:ANC:1,2008-12-01T15:54:00Z,28.1930,-82.7890,16.59,1111122 
COMPS,ioos:station:USF.COMPS:ANC:1,2008-12-01T16:00:00Z,28.1930,-82.7890,16.58,1111122 
COMPS,ioos:station:USF.COMPS:ANC:1,2008-12-01T16:06:00Z,28.1930,-82.7890,16.65,1111122 
COMPS,ioos:station:USF.COMPS:ANC:1,2008-12-01T16:12:00Z,28.1930,-82.7890,16.75,1111122 
COMPS,ioos:station:USF.COMPS:ANC:1,2008-12-01T16:18:00Z,28.1930,-82.7890,16.64,1111122 
COMPS,ioos:station:USF.COMPS:ANC:1,2008-12-01T16:24:00Z,28.1930,-82.7890,16.65,1111122 
COMPS,ioos:station:USF.COMPS:ANC:1,2008-12-01T16:30:00Z,28.1930,-82.7890,16.42,1111122 
COMPS,ioos:station:USF.COMPS:ANC:1,2008-12-01T16:36:00Z,28.1930,-82.7890,16.42,1111122 
COMPS,ioos:station:USF.COMPS:ANC:1,2008-12-01T16:42:00Z,28.1930,-82.7890,16.49,1111122 
COMPS,ioos:station:USF.COMPS:ANC:1,2008-12-01T16:48:00Z,28.1930,-82.7890,16.6,1111122 
COMPS,ioos:station:USF.COMPS:ANC:1,2008-12-01T16:54:00Z,28.1930,-82.7890,16.59,1111122 
COMPS,ioos:station:USF.COMPS:ANC:1,2008-12-01T17:00:00Z,28.1930,-82.7890,16.62,1111122 
COMPS,ioos:station:USF.COMPS:ANC:1,2008-12-01T17:06:00Z,28.1930,-82.7890,16.64,1111122 
COMPS,ioos:station:USF.COMPS:ANC:1,2008-12-01T17:12:00Z,28.1930,-82.7890,16.67,1111122 
COMPS,ioos:station:USF.COMPS:ANC:1,2008-12-01T17:18:00Z,28.1930,-82.7890,16.72,1111122 
COMPS,ioos:station:USF.COMPS:ANC:1,2008-12-01T17:24:00Z,28.1930,-82.7890,16.96,1111122 
COMPS,ioos:station:USF.COMPS:ANC:1,2008-12-01T17:30:00Z,28.1930,-82.7890,16.84,1111122 
COMPS,ioos:station:USF.COMPS:ANC:1,2008-12-01T17:36:00Z,28.1930,-82.7890,17.13,1111122 
COMPS,ioos:station:USF.COMPS:ANC:1,2008-12-01T17:42:00Z,28.1930,-82.7890,17.43,1111122 
COMPS,ioos:station:USF.COMPS:ANC:1,2008-12-01T17:48:00Z,28.1930,-82.7890,17.52,1111122 
COMPS,ioos:station:USF.COMPS:ANC:1,2008-12-01T17:54:00Z,28.1930,-82.7890,17.46,1111122 
COMPS,ioos:station:USF.COMPS:ANC:1,2008-12-01T18:00:00Z,28.1930,-82.7890,17.55,1111122 
COMPS,ioos:station:USF.COMPS:ANC:1,2008-12-01T18:06:00Z,28.1930,-82.7890,18.18,1111122 
COMPS,ioos:station:USF.COMPS:ANC:1,2008-12-01T18:12:00Z,28.1930,-82.7890,18.37,1111122 
COMPS,ioos:station:USF.COMPS:ANC:1,2008-12-01T18:18:00Z,28.1930,-82.7890,18.35,1111122 
COMPS,ioos:station:USF.COMPS:ANC:1,2008-12-01T18:24:00Z,28.1930,-82.7890,18.32,1111122 
COMPS,ioos:station:USF.COMPS:ANC:1,2008-12-01T18:30:00Z,28.1930,-82.7890,17.69,1111122 
COMPS,ioos:station:USF.COMPS:ANC:1,2008-12-01T18:36:00Z,28.1930,-82.7890,17.13,1111122 
COMPS,ioos:station:USF.COMPS:ANC:1,2008-12-01T18:42:00Z,28.1930,-82.7890,17.1,1111122 
COMPS,ioos:station:USF.COMPS:ANC:1,2008-12-01T18:48:00Z,28.1930,-82.7890,17.1,1111122 
COMPS,ioos:station:USF.COMPS:ANC:1,2008-12-01T18:54:00Z,28.1930,-82.7890,16.97,1111122 
COMPS,ioos:station:USF.COMPS:ANC:1,2008-12-01T19:00:00Z,28.1930,-82.7890,16.98,1111122 
COMPS,ioos:station:USF.COMPS:ANC:1,2008-12-01T19:06:00Z,28.1930,-82.7890,17.01,1111122 
COMPS,ioos:station:USF.COMPS:ANC:1,2008-12-01T19:12:00Z,28.1930,-82.7890,16.94,1111122 
COMPS,ioos:station:USF.COMPS:ANC:1,2008-12-01T19:18:00Z,28.1930,-82.7890,16.83,1111122 
COMPS,ioos:station:USF.COMPS:ANC:1,2008-12-01T19:24:00Z,28.1930,-82.7890,16.86,1111122 
COMPS,ioos:station:USF.COMPS:ANC:1,2008-12-01T19:30:00Z,28.1930,-82.7890,16.71,1111122 
COMPS,ioos:station:USF.COMPS:ANC:1,2008-12-01T19:36:00Z,28.1930,-82.7890,16.79,1111122 
COMPS,ioos:station:USF.COMPS:ANC:1,2008-12-01T19:42:00Z,28.1930,-82.7890,16.84,1111122 
COMPS,ioos:station:USF.COMPS:ANC:1,2008-12-01T19:48:00Z,28.1930,-82.7890,16.83,1111122 
COMPS,ioos:station:USF.COMPS:ANC:1,2008-12-01T19:54:00Z,28.1930,-82.7890,16.77,1111122 
COMPS,ioos:station:USF.COMPS:ANC:1,2008-12-01T20:00:00Z,28.1930,-82.7890,16.81,1111122 
COMPS,ioos:station:USF.COMPS:ANC:1,2008-12-01T20:06:00Z,28.1930,-82.7890,16.9,1111122 
COMPS,ioos:station:USF.COMPS:ANC:1,2008-12-01T20:12:00Z,28.1930,-82.7890,16.98,1111122 
COMPS,ioos:station:USF.COMPS:ANC:1,2008-12-01T20:18:00Z,28.1930,-82.7890,17.02,1111122 
COMPS,ioos:station:USF.COMPS:ANC:1,2008-12-01T20:24:00Z,28.1930,-82.7890,17.14,1111122 
COMPS,ioos:station:USF.COMPS:ANC:1,2008-12-01T20:30:00Z,28.1930,-82.7890,17.01,1111122 
COMPS,ioos:station:USF.COMPS:ANC:1,2008-12-01T20:36:00Z,28.1930,-82.7890,17.03,1111122 
COMPS,ioos:station:USF.COMPS:ANC:1,2008-12-01T20:42:00Z,28.1930,-82.7890,17.14,1111122 
COMPS,ioos:station:USF.COMPS:ANC:1,2008-12-01T20:48:00Z,28.1930,-82.7890,17.14,1111122 
COMPS,ioos:station:USF.COMPS:ANC:1,2008-12-01T20:54:00Z,28.1930,-82.7890,17.13,1111122 
COMPS,ioos:station:USF.COMPS:ANC:1,2008-12-01T21:00:00Z,28.1930,-82.7890,17.19,1111122 
COMPS,ioos:station:USF.COMPS:ANC:1,2008-12-01T21:06:00Z,28.1930,-82.7890,17.26,1111122 
COMPS,ioos:station:USF.COMPS:ANC:1,2008-12-01T21:12:00Z,28.1930,-82.7890,17.47,1111122 
COMPS,ioos:station:USF.COMPS:ANC:1,2008-12-01T21:18:00Z,28.1930,-82.7890,17.73,1111122 
COMPS,ioos:station:USF.COMPS:ANC:1,2008-12-01T21:24:00Z,28.1930,-82.7890,18.11,1111122 
COMPS,ioos:station:USF.COMPS:ANC:1,2008-12-01T21:30:00Z,28.1930,-82.7890,17.8,1111122 
COMPS,ioos:station:USF.COMPS:ANC:1,2008-12-01T21:36:00Z,28.1930,-82.7890,17.6,1111122 
COMPS,ioos:station:USF.COMPS:ANC:1,2008-12-01T21:42:00Z,28.1930,-82.7890,17.61,1111122 
COMPS,ioos:station:USF.COMPS:ANC:1,2008-12-01T21:48:00Z,28.1930,-82.7890,17.81,1111122 
COMPS,ioos:station:USF.COMPS:ANC:1,2008-12-01T21:54:00Z,28.1930,-82.7890,17.84,1111122 
COMPS,ioos:station:USF.COMPS:ANC:1,2008-12-01T22:00:00Z,28.1930,-82.7890,17.94,1111122 
COMPS,ioos:station:USF.COMPS:ANC:1,2008-12-01T22:06:00Z,28.1930,-82.7890,17.85,1111122 
COMPS,ioos:station:USF.COMPS:ANC:1,2008-12-01T22:12:00Z,28.1930,-82.7890,17.61,1111122 
COMPS,ioos:station:USF.COMPS:ANC:1,2008-12-01T22:18:00Z,28.1930,-82.7890,17.44,1111122 
COMPS,ioos:station:USF.COMPS:ANC:1,2008-12-01T22:24:00Z,28.1930,-82.7890,17.61,1111122 
COMPS,ioos:station:USF.COMPS:ANC:1,2008-12-01T22:30:00Z,28.1930,-82.7890,17.27,1111122 
COMPS,ioos:station:USF.COMPS:ANC:1,2008-12-01T22:36:00Z,28.1930,-82.7890,16.86,1111122 
COMPS,ioos:station:USF.COMPS:ANC:1,2008-12-01T22:42:00Z,28.1930,-82.7890,16.77,1111122 
COMPS,ioos:station:USF.COMPS:ANC:1,2008-12-01T22:48:00Z,28.1930,-82.7890,16.91,1111122 
COMPS,ioos:station:USF.COMPS:ANC:1,2008-12-01T22:54:00Z,28.1930,-82.7890,16.37,1111122 
COMPS,ioos:station:USF.COMPS:ANC:1,2008-12-01T23:00:00Z,28.1930,-82.7890,16.73,1111122 
COMPS,ioos:station:USF.COMPS:ANC:1,2008-12-01T23:06:00Z,28.1930,-82.7890,16.4,1111122 
COMPS,ioos:station:USF.COMPS:ANC:1,2008-12-01T23:12:00Z,28.1930,-82.7890,16.64,1111122 
COMPS,ioos:station:USF.COMPS:ANC:1,2008-12-01T23:18:00Z,28.1930,-82.7890,16.28,1111122 
COMPS,ioos:station:USF.COMPS:ANC:1,2008-12-01T23:24:00Z,28.1930,-82.7890,16.11,1111122 
COMPS,ioos:station:USF.COMPS:ANC:1,2008-12-01T23:30:00Z,28.1930,-82.7890,15.95,1111122 
COMPS,ioos:station:USF.COMPS:ANC:1,2008-12-01T23:36:00Z,28.1930,-82.7890,16.13,1111122 
COMPS,ioos:station:USF.COMPS:ANC:1,2008-12-01T23:42:00Z,28.1930,-82.7890,16.5,1111122 
COMPS,ioos:station:USF.COMPS:ANC:1,2008-12-01T23:48:00Z,28.1930,-82.7890,16.22,1111122 
COMPS,ioos:station:USF.COMPS:ANC:1,2008-12-01T23:54:00Z,28.1930,-82.7890,16.19,1111122 
COMPS,ioos:station:USF.COMPS:ANC:1,2008-12-02T01:00:00Z,28.1930,-82.7890,15.31,1111122 
COMPS,ioos:station:USF.COMPS:ANC:1,2008-12-02T01:06:00Z,28.1930,-82.7890,15.22,1111122 
COMPS,ioos:station:USF.COMPS:ANC:1,2008-12-02T01:12:00Z,28.1930,-82.7890,15.1,1111122 
COMPS,ioos:station:USF.COMPS:ANC:1,2008-12-02T01:18:00Z,28.1930,-82.7890,14.92,1111122 
COMPS,ioos:station:USF.COMPS:ANC:1,2008-12-02T01:24:00Z,28.1930,-82.7890,14.84,1111122 
COMPS,ioos:station:USF.COMPS:ANC:1,2008-12-02T01:30:00Z,28.1930,-82.7890,14.83,1111122 
COMPS,ioos:station:USF.COMPS:ANC:1,2008-12-02T01:36:00Z,28.1930,-82.7890,14.88,1111122 
COMPS,ioos:station:USF.COMPS:ANC:1,2008-12-02T01:42:00Z,28.1930,-82.7890,14.87,1111122 
COMPS,ioos:station:USF.COMPS:ANC:1,2008-12-02T01:48:00Z,28.1930,-82.7890,14.93,1111122 
COMPS,ioos:station:USF.COMPS:ANC:1,2008-12-02T01:54:00Z,28.1930,-82.7890,14.86,1111122 
COMPS,ioos:station:USF.COMPS:ANC:1,2008-12-02T02:00:00Z,28.1930,-82.7890,15.02,1111122 
COMPS,ioos:station:USF.COMPS:ANC:1,2008-12-02T02:06:00Z,28.1930,-82.7890,15.07,1111122 
COMPS,ioos:station:USF.COMPS:ANC:1,2008-12-02T02:12:00Z,28.1930,-82.7890,15.04,1111122 
COMPS,ioos:station:USF.COMPS:ANC:1,2008-12-02T02:18:00Z,28.1930,-82.7890,15.36,1111122 
COMPS,ioos:station:USF.COMPS:ANC:1,2008-12-02T02:24:00Z,28.1930,-82.7890,15.57,1111122 
COMPS,ioos:station:USF.COMPS:ANC:1,2008-12-02T02:30:00Z,28.1930,-82.7890,15.35,1111122 
COMPS,ioos:station:USF.COMPS:ANC:1,2008-12-02T02:36:00Z,28.1930,-82.7890,15.45,1111122 
COMPS,ioos:station:USF.COMPS:ANC:1,2008-12-02T02:42:00Z,28.1930,-82.7890,15.6,1111122 
COMPS,ioos:station:USF.COMPS:ANC:1,2008-12-02T02:48:00Z,28.1930,-82.7890,15.81,1111122 
COMPS,ioos:station:USF.COMPS:ANC:1,2008-12-02T02:54:00Z,28.1930,-82.7890,16.14,1111122 
COMPS,ioos:station:USF.COMPS:ANC:1,2008-12-02T03:00:00Z,28.1930,-82.7890,16.4,1111122 
COMPS,ioos:station:USF.COMPS:ANC:1,2008-12-02T03:06:00Z,28.1930,-82.7890,16.42,1111122 
COMPS,ioos:station:USF.COMPS:ANC:1,2008-12-02T03:12:00Z,28.1930,-82.7890,16.45,1111122 
COMPS,ioos:station:USF.COMPS:ANC:1,2008-12-02T03:18:00Z,28.1930,-82.7890,16.56,1111122 
COMPS,ioos:station:USF.COMPS:ANC:1,2008-12-02T03:24:00Z,28.1930,-82.7890,16.74,1111122 
COMPS,ioos:station:USF.COMPS:ANC:1,2008-12-02T03:30:00Z,28.1930,-82.7890,16.56,1111122 
COMPS,ioos:station:USF.COMPS:ANC:1,2008-12-02T03:36:00Z,28.1930,-82.7890,16.58,1111122 
COMPS,ioos:station:USF.COMPS:ANC:1,2008-12-02T03:42:00Z,28.1930,-82.7890,16.49,1111122 
COMPS,ioos:station:USF.COMPS:ANC:1,2008-12-02T03:48:00Z,28.1930,-82.7890,16.33,1111122 
COMPS,ioos:station:USF.COMPS:ANC:1,2008-12-02T03:54:00Z,28.1930,-82.7890,16.29,1111122 
COMPS,ioos:station:USF.COMPS:ANC:1,2008-12-02T04:00:00Z,28.1930,-82.7890,16.37,1111122 
COMPS,ioos:station:USF.COMPS:ANC:1,2008-12-02T04:06:00Z,28.1930,-82.7890,16.0,1111122 
COMPS,ioos:station:USF.COMPS:ANC:1,2008-12-02T04:12:00Z,28.1930,-82.7890,15.54,1111122 
COMPS,ioos:station:USF.COMPS:ANC:1,2008-12-02T04:18:00Z,28.1930,-82.7890,15.66,1111122 
COMPS,ioos:station:USF.COMPS:ANC:1,2008-12-02T04:24:00Z,28.1930,-82.7890,15.41,1111122 
COMPS,ioos:station:USF.COMPS:ANC:1,2008-12-02T04:30:00Z,28.1930,-82.7890,15.2,1111122 
COMPS,ioos:station:USF.COMPS:ANC:1,2008-12-02T04:36:00Z,28.1930,-82.7890,15.03,1111122 
COMPS,ioos:station:USF.COMPS:ANC:1,2008-12-02T04:42:00Z,28.1930,-82.7890,15.0,1111122 
COMPS,ioos:station:USF.COMPS:ANC:1,2008-12-02T04:48:00Z,28.1930,-82.7890,14.81,1111122 
COMPS,ioos:station:USF.COMPS:ANC:1,2008-12-02T04:54:00Z,28.1930,-82.7890,14.71,1111122 
COMPS,ioos:station:USF.COMPS:ANC:1,2008-12-02T05:00:00Z,28.1930,-82.7890,14.73,1111122 
COMPS,ioos:station:USF.COMPS:ANC:1,2008-12-02T05:06:00Z,28.1930,-82.7890,14.69,1111122 
COMPS,ioos:station:USF.COMPS:ANC:1,2008-12-02T05:12:00Z,28.1930,-82.7890,14.65,1111122 
COMPS,ioos:station:USF.COMPS:ANC:1,2008-12-02T05:18:00Z,28.1930,-82.7890,14.85,1111122 
COMPS,ioos:station:USF.COMPS:ANC:1,2008-12-02T05:24:00Z,28.1930,-82.7890,14.97,1111122 
COMPS,ioos:station:USF.COMPS:ANC:1,2008-12-02T05:30:00Z,28.1930,-82.7890,14.67,1111122 
COMPS,ioos:station:USF.COMPS:ANC:1,2008-12-02T05:36:00Z,28.1930,-82.7890,14.81,1111122 
COMPS,ioos:station:USF.COMPS:ANC:1,2008-12-02T05:42:00Z,28.1930,-82.7890,14.91,1111122 
COMPS,ioos:station:USF.COMPS:ANC:1,2008-12-02T05:48:00Z,28.1930,-82.7890,15.05,1111122 
COMPS,ioos:station:USF.COMPS:ANC:1,2008-12-02T05:54:00Z,28.1930,-82.7890,14.96,1111122 
COMPS,ioos:station:USF.COMPS:ANC:1,2008-12-02T06:00:00Z,28.1930,-82.7890,15.09,1111122 
COMPS,ioos:station:USF.COMPS:ANC:1,2008-12-02T06:06:00Z,28.1930,-82.7890,14.95,1111122 